Regional Weather Roundup
Issued by NWS

Home | Current Version | Previous Version | Graphics & Text | Print | Product List | Glossary On
Versions: 1 2 3 4 5 6 7 8 9 10 11 12 13 14 15 16 17 18 19 20 21 22 23 24 25 26 27 28 29 30 31 32 33 34 35 36 37 38 39 40 41 42 43 44 45 46 47 48 49 50
924
ASUS44 KLIX 020001
RWRLA
LOUISIANA WEATHER ROUNDUP
NATIONAL WEATHER SERVICE NEW ORLEANS LA
700 PM CDT MON SEP 01 2014

NOTE: "FAIR" INDICATES FEW OR NO CLOUDS BELOW 12,000 FEET WITH NO
      SIGNIFICANT WEATHER AND/OR OBSTRUCTIONS TO VISIBILITY.
      SKY/WX - SKY CONDITION AND SIGNIFICANT WEATHER.
      TMP - AIR TEMPERATURE.    DP   - DEWPOINT TEMPERATURE.
      RH  - RELATIVE HUMIDITY.  PRES - PRESSURE.
      HX  - HEAT INDEX.         WCI  - WIND CHILL INDEX.

*  THESE STATIONS ARE NOT NWS OR FAA STATIONS AND ARE NOT UNDER
   NWS QUALITY CONTROL.

LAZ040-048-061>063-065-066-069-020100-
SOUTHEAST LOUISIANA

CITY           SKY/WX    TMP DP  RH WIND       PRES   REMARKS
N.O. AUDUBON     N/A     84  79  85 MISG        N/A  HX  96
6HR MIN TEMP:  78; 6HR MAX TEMP:  89; 6HR PCP:  0.21;

N.O. INTL ARPT CLOUDY    83  75  77 S6        30.00R
6HR MIN TEMP:  83; 6HR MAX TEMP:  92;

N.O. LAKEFRONT LGT RAIN  81  76  84 E6        30.01R
6HR MIN TEMP:  77; 6HR MAX TEMP:  90; 6HR PCP:  0.17;

N.O. DOWNTOWN* FAIR      82  73  74 CALM      30.01R
6HR MIN TEMP:  79; 6HR MAX TEMP:  90; 6HR PCP:  0.34;

SLIDELL        CLOUDY    79  74  84 CALM      30.02R
6HR MIN TEMP:  79; 6HR MAX TEMP:  88; 6HR PCP:  0.19;

BATON ROUGE    CLOUDY    82  75  79 E6        30.00R
6HR MIN TEMP:  79; 6HR MAX TEMP:  92; 6HR PCP:  0.04;

BOOTHVILLE     MOCLDY    84  74  71 SE9       30.01S
6HR MIN TEMP:  84; 6HR MAX TEMP:  90;

BELLE CHASSE   CLOUDY    83  75  77 CALM      29.99S
6HR MIN TEMP:  80; 6HR MAX TEMP:  91; 6HR PCP:  0.08;

BOGALUSA*      MOCLDY    79  74  84 SE5       30.05R
6HR MIN TEMP:  78; 6HR MAX TEMP:  92; 6HR PCP:  0.57;

GALLIANO*      NOT AVBL
NEW ROADS*     MOCLDY    81  75  82 SE5       29.99R THUNDER
6HR MIN TEMP:  76; 6HR MAX TEMP:  89; 6HR PCP:  0.11;

GONZALES*        N/A     84  80  87 CALM      30.00R HX  97
6HR MIN TEMP:  81; 6HR MAX TEMP:  91;

HAMMOND*       NOT AVBL
HOUMA*         PTCLDY    84  73  70 SE7       29.98F
PORT FOURCHON* PTCLDY    86  75  70 S7G17     30.01S HX  95

$$

LAZ041-044-053-054-020100-
SOUTHWEST LOUISIANA

CITY           SKY/WX    TMP DP  RH WIND       PRES   REMARKS
LAKE CHARLES   PTCLDY    83  78  85 S10G18    29.95R
6HR MIN TEMP:  82; 6HR MAX TEMP:  90; 6HR PCP:  0.24;

LAFAYETTE      PTCLDY    84  77  79 S5        29.98R
6HR MIN TEMP:  84; 6HR MAX TEMP:  91; 6HR PCP: TRACE;

PATTERSON      MOCLDY    84  77  79 S7        30.02R
6HR MIN TEMP:  79; 6HR MAX TEMP:  91;

SALT POINT       N/A     85  76  74 SE7       29.97R
6HR MIN TEMP:  85; 6HR MAX TEMP:  92; 6HR PCP:  0.05;

NEW IBERIA     PTCLDY    85  77  77 S8        29.97R HX  95
6HR MIN TEMP:  85; 6HR MAX TEMP:  92;

CHENAULT AIRPK PTCLDY    84  75  74 S10       29.94F

$$

LAZ027-028-020100-
CENTRAL LOUISIANA

CITY           SKY/WX    TMP DP  RH WIND       PRES   REMARKS
FORT POLK      CLOUDY    80  76  87 SE5       29.95F
6HR MIN TEMP:  78; 6HR MAX TEMP:  90; 6HR PCP:  0.11;

ALEXANDRIA INT CLOUDY    82  74  76 SE7       29.96R
6HR MIN TEMP:  81; 6HR MAX TEMP:  92; 6HR PCP:  0.01;

ALEXANDRIA     CLOUDY    81  74  79 CALM      29.98R
6HR MIN TEMP:  80; 6HR MAX TEMP:  94; 6HR PCP:  0.39;


$$

LAZ001-002-020100-
NORTHWEST LOUISIANA

CITY           SKY/WX    TMP DP  RH WIND       PRES   REMARKS
SHREVEPORT     PTCLDY    89  73  59 S13       29.91R HX  97
6HR MIN TEMP:  89; 6HR MAX TEMP:  97;

BARKSDALE AFB  MOCLDY    84  75  74 S13       29.92R
6HR MIN TEMP:  83; 6HR MAX TEMP:  94; 6HR PCP: TRACE;

DTN SHREVEPORT PTCLDY    87  73  62 S16       29.91R
6HR MIN TEMP:  87; 6HR MAX TEMP:  93;


$$

LAZ014-016-020100-
NORTHEAST LOUISIANA

CITY           SKY/WX    TMP DP  RH WIND       PRES   REMARKS
MONROE         CLEAR     85  74  69 SE10G16   29.97R
6HR MIN TEMP:  85; 6HR MAX TEMP:  92;

TALLULAH       CLOUDY    82  72  71 SE12      29.99R
6HR MIN TEMP:  80; 6HR MAX TEMP:  93;


$$




USA.gov is the U.S. government's official web portal to all federal, state and local government web resources and services.